This is the latest recevied weather packets stored in our database for station/object N9WHM. If no packets are shown the sender has not sent any weather packets the latest 10 day(s).
| Time | Temp. | Humidity | Pressure | Rain* | Wind** | Luminosity | Snow |
|---|---|---|---|---|---|---|---|
| 1777647992 | 9.44° C | 67% | 1019 hPa | 0 mm | - | 492 W/m² | - |
| 1777647688 | 9.44° C | 68% | 1019 hPa | 0 mm | - | 463 W/m² | - |
| 1777647384 | 9.44° C | 68% | 1018.9 hPa | 0 mm | - | 482 W/m² | - |
| 1777647082 | 8.89° C | 70% | 1018.9 hPa | 0 mm | - | 433 W/m² | - |
| 1777646778 | 8.89° C | 70% | 1018.8 hPa | 0 mm | - | 390 W/m² | - |
| 1777646478 | 8.33° C | 72% | 1018.9 hPa | 0 mm | - | 361 W/m² | - |
| 1777646175 | 8.33° C | 72% | 1018.8 hPa | 0 mm | - | 349 W/m² | - |
| 1777645872 | 8.33° C | 72% | 1019 hPa | 0 mm | - | 337 W/m² | - |
| 1777645569 | 8.33° C | 73% | 1018.9 hPa | 0 mm | - | 319 W/m² | - |
| 1777645265 | 7.78° C | 73% | 1018.9 hPa | 0 mm | - | 303 W/m² | - |
| 1777644961 | 7.78° C | 73% | 1018.8 hPa | 0 mm | - | 292 W/m² | - |
| 1777644659 | 7.78° C | 73% | 1018.8 hPa | 0 mm | - | 276 W/m² | - |
| 1777644355 | 7.22° C | 75% | 1018.8 hPa | 0 mm | - | 263 W/m² | - |
| 1777644051 | 7.22° C | 74% | 1018.6 hPa | 0 mm | - | 247 W/m² | - |
| 1777643748 | 7.22° C | 75% | 1018.7 hPa | 0 mm | - | 237 W/m² | - |
| 1777643446 | 6.67° C | 75% | 1018.8 hPa | 0 mm | - | 224 W/m² | - |
| 1777643142 | 6.67° C | 76% | 1018.7 hPa | 0 mm | - | 210 W/m² | - |
| 1777642838 | 6.67° C | 76% | 1018.8 hPa | 0 mm | - | 196 W/m² | - |
| 1777642536 | 6.67° C | 76% | 1018.6 hPa | 0 mm | - | 188 W/m² | - |
| 1777642232 | 6.11° C | 76% | 1018.7 hPa | 0 mm | - | 175 W/m² | - |
| 1777641924 | 6.11° C | 77% | 1018.6 hPa | 0 mm | - | 164 W/m² | - |
| 1777641620 | 6.11° C | 77% | 1018.7 hPa | 0 mm | - | 151 W/m² | - |
| 1777641315 | 5.56° C | 78% | 1018.4 hPa | 0 mm | - | 142 W/m² | - |
| 1777641011 | 5.56° C | 79% | 1018.5 hPa | 0 mm | - | 130 W/m² | - |
| 1777640707 | 5° C | 79% | 1018.6 hPa | 0 mm | - | 118 W/m² | - |
* Rain latest hour (hover to see other rain measurements)
** Current wind speed in m/s (hover to see current wind gust speed)